[[{"header":{"parameterUnit":"m.s-1","parameterCategory":1,"la1":30.2991,"la2":30.254,"lo1":-89.0895,"lo2":-89.0444,"dy":0.0017,"dx":0.0017,"nx":28,"ny":28,"refTime":"2025-07-28T03:00:00:Z","depth":0,"parameterNumber":2,"parameterNumberName":"U-component_of_WINDS"},"data":[0,0,0,0,0,0,0,0,0,0,0,0,0,0,0,0,0,0,0,0,0,0,0,0,0,0,0,0,0,0,0,0,0,0,0,0,0,0,0,0,0,0,0,0,0,0,0,0,0,0,0,0,0,0,0,0,0,0,2.8007,2.8008,0,2.8011,2.8011,2.8011,2.7932,2.793,2.7927,2.7925,2.7929,2.7931,2.7933,0,0,0,0,0,0,0,0,0,0,0,0,0,2.7932,2.7934,2.8007,2.8008,2.8008,2.8011,2.8011,2.8011,2.7932,2.793,2.7927,2.7924,2.7929,2.7931,2.7934,0,0,0,0,0,0,0,0,0,0,0,0,0,2.7953,2.7934,2.8007,2.7968,2.7965,2.8011,2.8011,2.8011,2.7933,2.7929,2.7926,2.7923,2.7928,2.7931,2.7934,2.8018,0,0,2.7943,2.7945,0,0,0,0,0,0,0,0,2.7952,2.7956,2.7974,2.7971,2.7967,2.7968,2.7986,2.8014,2.7934,2.7945,2.7925,2.7922,2.7945,2.7946,2.7954,2.8018,2.8018,2.7944,2.7946,2.7947,2.7948,0,0,0,0,0,0,0,2.7951,2.7956,2.8009,2.7975,2.797,2.7951,2.795,2.7991,2.7963,2.7944,2.7938,2.794,2.7942,2.7951,2.7953,2.8018,2.7944,2.7946,2.7948,2.795,2.8152,2.8156,0,0,0,0,0,0,2.7955,2.7955,2.8009,2.8009,2.7952,2.7955,2.7954,2.7971,2.7962,2.7958,2.7942,2.7936,2.7947,2.795,2.7953,2.8052,2.7947,2.795,2.7952,2.8149,2.8153,2.8157,0,0,0,0,0,0,2.7953,2.796,2.8009,2.798,2.7985,2.796,2.7979,2.7973,2.7981,2.7961,2.7956,2.7957,2.7945,2.7949,2.8003,2.8051,2.7951,2.7954,2.8145,2.815,2.8155,2.8249,0,0,0,0,0,0,2.7952,2.796,2.7991,2.7982,2.7987,2.8058,2.7982,2.7975,2.7987,2.7979,2.7973,2.7969,2.7943,2.7998,2.8006,2.8053,2.7957,2.814,2.8147,2.8153,2.8241,2.8257,2.827,0,0,0,0,0,2.7949,2.8017,2.7993,2.8,2.8026,2.8061,2.8064,2.8032,2.7991,2.8023,2.801,2.7969,2.8044,2.8005,2.8012,2.8061,2.8137,2.8145,2.8153,2.8235,2.8254,2.8269,0,0,0,0,0,0,2.8033,2.8015,2.7989,2.8056,2.8061,2.8047,2.8086,2.8053,2.8069,2.8061,2.8021,2.802,2.8081,2.8076,2.8032,2.8143,2.8084,2.8093,2.8143,2.8161,2.8175,2.8175,2.7959,0,0,0,0,0,2.8059,2.8089,2.8072,2.8133,2.8137,2.8112,2.8126,2.8101,2.8104,2.8106,2.8097,2.8101,2.8126,2.8143,2.8165,2.824,2.8239,2.8278,2.8292,2.8304,2.8313,2.8354,2.8372,2.8183,2.8183,2.8183,0,0,2.8114,2.8108,2.8129,2.815,2.8151,2.8183,2.8114,2.815,2.8174,2.8111,2.8162,2.8156,2.8158,2.8224,2.8252,2.8222,2.8365,2.8314,2.8324,2.8326,2.8364,2.8382,2.8398,2.8188,2.8187,2.8186,0,0,2.823,2.8228,2.8279,2.8282,2.8284,2.8267,2.828,2.8272,2.8266,2.8316,2.827,2.8298,2.8341,2.8345,2.8353,2.8473,2.8436,2.8481,2.8555,2.8596,2.8611,2.8624,2.8667,2.8683,2.849,2.849,2.849,0,2.8297,2.8344,2.831,2.835,2.8361,2.8307,2.8359,2.8363,2.8372,2.8381,2.8347,2.8401,2.8399,2.8466,2.8495,2.8503,2.8517,2.8481,2.8611,2.8624,2.8636,2.8677,2.8693,2.8496,2.8495,2.8495,2.8494,0,2.8428,2.8461,2.8502,2.8514,2.8529,2.8575,2.8548,2.8568,2.8543,2.853,2.8582,2.8578,2.8598,2.8612,2.8587,2.8676,2.8657,2.8618,2.8558,2.866,2.8698,2.8713,2.8504,2.8502,2.85,2.8499,0,0,2.8595,2.8588,2.8604,2.8609,2.8609,2.8634,2.8678,2.8699,2.8717,2.8726,2.8762,2.8801,2.8765,2.8774,2.875,2.8785,2.8882,2.8742,2.8741,2.8769,2.898,2.901,2.9029,2.8858,2.8861,2.8863,2.898,0,2.8709,2.8784,2.8755,2.8833,2.8864,2.8813,2.8852,2.8856,2.8845,2.887,2.8858,2.8887,2.8837,2.8842,2.8875,2.8863,2.8924,2.8854,2.8892,2.8894,2.8893,2.9049,2.908,2.9191,2.8995,2.8997,2.8999,0,2.8851,2.8867,2.8948,2.8943,2.8955,2.899,2.9008,2.9032,2.9036,2.9026,2.9037,2.9005,2.9049,2.8989,2.9049,2.9003,2.9016,2.9013,2.9017,2.9019,2.8953,2.9056,2.9225,2.9242,2.9022,2.902,2.9019,0,2.8967,2.9008,2.9062,2.9068,2.9063,2.909,2.9089,2.909,2.9105,2.912,2.9129,2.9149,2.9161,2.9177,2.9152,2.911,2.9216,2.9154,2.9209,2.921,2.9233,2.9232,2.9408,2.9242,2.9242,2.9241,2.9241,0,2.9097,2.9148,2.9114,2.9147,2.9204,2.9171,2.9228,2.9222,2.9224,2.9255,2.9212,2.9243,2.9208,2.9235,2.9215,2.9269,2.9274,2.9267,2.9262,2.9271,2.9272,2.928,2.9272,2.9246,2.9245,2.9244,2.9243,0,2.9235,2.9214,2.927,2.9262,2.9261,2.9304,2.9297,2.9328,2.9314,2.9355,2.9363,2.9342,2.9372,2.9349,2.9378,2.9365,2.9436,2.9419,2.9435,2.943,2.9487,2.9482,2.9674,2.9698,2.9516,2.9518,2.952,0,2.9319,2.9358,2.9355,2.9373,2.9376,2.9406,2.9421,2.939,2.9408,2.9417,2.9447,2.9473,2.9493,2.9544,2.9532,2.9554,2.9538,2.9604,2.9541,2.955,2.954,2.9538,2.9542,2.9616,2.9619,2.962,2.9622,0,2.9472,2.946,2.9483,2.9504,2.9524,2.9538,2.955,2.9567,2.9536,2.9558,2.9589,2.9604,2.9635,2.9663,2.9681,2.9681,2.9647,2.9642,2.9656,2.9666,2.9674,2.9671,2.947,2.9637,2.9636,2.9635,2.9634,2.9633,2.9586,2.9619,2.9622,2.965,2.9656,2.9668,2.9697,2.9688,2.9713,2.9736,2.9716,2.9754,2.9758,2.978,2.9784,2.9813,2.9786,2.9806,2.9811,2.9817,2.9825,2.967,2.9816,2.9815,2.9815,2.9815,2.9814,0,2.9737,2.9737,2.9763,2.9781,2.9804,2.977,2.9781,2.9802,2.9836,2.9843,2.9864,2.99,2.9927,2.9917,2.9941,2.9966,2.9951,2.9974,2.9971,2.9972,2.9848,2.9833,2.9985,2.9985,2.9985,2.9985,2.9985,2.9985,2.9818,2.9872,2.9861,2.9918,2.9917,2.9954,2.9963,2.9974,2.998,3.0023,3.0045,3.0039,3.004,3.0063,3.0087,3.0083,3.0094,3.0123,3.0114,2.9998,2.9981,2.9965,2.9951,3.0125,3.0125,3.0236,3.0237,3.0238]},{"header":{"parameterUnit":"m.s-1","parameterCategory":1,"la1":30.2991,"la2":30.254,"lo1":-89.0895,"lo2":-89.0444,"dy":0.0017,"dx":0.0017,"nx":28,"ny":28,"refTime":"2025-07-28T03:00:00:Z","depth":0,"parameterNumber":3,"parameterNumberName":"V-component_of_WINDS"},"data":[0,0,0,0,0,0,0,0,0,0,0,0,0,0,0,0,0,0,0,0,0,0,0,0,0,0,0,0,0,0,0,0,0,0,0,0,0,0,0,0,0,0,0,0,0,0,0,0,0,0,0,0,0,0,0,0,0,0,-3.3373,-3.3374,0,-3.3496,-3.3498,-3.3499,-3.3483,-3.3481,-3.3479,-3.3477,-3.3602,-3.3608,-3.3613,0,0,0,0,0,0,0,0,0,0,0,0,0,-3.3123,-3.3127,-3.3372,-3.3374,-3.3376,-3.3496,-3.3498,-3.3499,-3.3483,-3.348,-3.3478,-3.3476,-3.3601,-3.3607,-3.3613,0,0,0,0,0,0,0,0,0,0,0,0,0,-3.3237,-3.3129,-3.3372,-3.3382,-3.3384,-3.3496,-3.3498,-3.35,-3.3483,-3.348,-3.3477,-3.3475,-3.3599,-3.3606,-3.3614,-3.3724,0,0,-3.3638,-3.3642,0,0,0,0,0,0,0,0,-3.3231,-3.3246,-3.3379,-3.3381,-3.3384,-3.3471,-3.3456,-3.3575,-3.3484,-3.3446,-3.3477,-3.3473,-3.3561,-3.3572,-3.3602,-3.373,-3.3735,-3.3639,-3.3644,-3.3647,-3.3649,0,0,0,0,0,0,0,-3.3223,-3.3241,-3.3421,-3.3381,-3.3384,-3.338,-3.3393,-3.3478,-3.3519,-3.3449,-3.3448,-3.3463,-3.3562,-3.3594,-3.3605,-3.3737,-3.3639,-3.3646,-3.365,-3.3654,-3.3963,-3.3966,0,0,0,0,0,0,-3.3212,-3.3234,-3.3417,-3.3425,-3.3298,-3.3387,-3.3402,-3.3446,-3.3518,-3.3526,-3.3465,-3.3462,-3.3582,-3.3595,-3.3609,-3.3743,-3.3647,-3.3654,-3.3659,-3.3959,-3.3964,-3.3967,0,0,0,0,0,0,-3.3207,-3.3229,-3.3412,-3.333,-3.3353,-3.3395,-3.3445,-3.345,-3.3482,-3.353,-3.3538,-3.3491,-3.358,-3.3598,-3.3696,-3.3747,-3.3658,-3.3665,-3.3955,-3.3961,-3.3965,-3.4012,0,0,0,0,0,0,-3.32,-3.3227,-3.3269,-3.3331,-3.3357,-3.3497,-3.3448,-3.3455,-3.3496,-3.3492,-3.3556,-3.3564,-3.3579,-3.3684,-3.3704,-3.3757,-3.3671,-3.3951,-3.3958,-3.3964,-3.4006,-3.4018,-3.4029,0,0,0,0,0,-3.3191,-3.3277,-3.3271,-3.3293,-3.341,-3.35,-3.3515,-3.3532,-3.35,-3.3543,-3.3574,-3.3562,-3.3739,-3.3694,-3.3716,-3.3772,-3.3948,-3.3956,-3.3963,-3.4001,-3.4016,-3.4029,0,0,0,0,0,0,-3.3219,-3.3285,-3.3279,-3.3387,-3.3439,-3.3497,-3.3552,-3.3547,-3.3607,-3.3601,-3.3618,-3.3633,-3.3732,-3.3762,-3.3712,-3.3883,-3.3839,-3.3851,-3.386,-3.3875,-3.3886,-3.3877,-3.3678,0,0,0,0,0,-3.3238,-3.3305,-3.3359,-3.3449,-3.3475,-3.3509,-3.3549,-3.3557,-3.361,-3.3632,-3.367,-3.3722,-3.379,-3.3834,-3.3898,-3.401,-3.4025,-3.406,-3.4071,-3.408,-3.4091,-3.4154,-3.4171,-3.3993,-3.3993,-3.3993,0,0,-3.3277,-3.3321,-3.3363,-3.3456,-3.3496,-3.3566,-3.3527,-3.3602,-3.3655,-3.3643,-3.3738,-3.3768,-3.3828,-3.3934,-3.3983,-3.3962,-3.4144,-3.409,-3.4097,-3.4103,-3.4164,-3.4181,-3.4196,-3.3999,-3.3998,-3.3997,0,0,-3.3385,-3.3425,-3.3505,-3.3547,-3.3609,-3.3631,-3.3651,-3.3711,-3.3731,-3.3827,-3.382,-3.3882,-3.3998,-3.4041,-3.4078,-3.4204,-3.4196,-3.4225,-3.4284,-3.4345,-3.4359,-3.4372,-3.4418,-3.4434,-3.4235,-3.4235,-3.4235,0,-3.3426,-3.3531,-3.3547,-3.3624,-3.3665,-3.3659,-3.3741,-3.378,-3.386,-3.389,-3.3865,-3.4011,-3.4051,-3.4168,-3.4199,-3.4228,-3.4252,-3.4218,-3.4356,-3.4369,-3.4381,-3.4425,-3.4442,-3.4239,-3.4238,-3.4238,-3.4238,0,-3.3579,-3.3652,-3.371,-3.3788,-3.3836,-3.3915,-3.3943,-3.399,-3.3995,-3.402,-3.4118,-3.4166,-3.4241,-3.4269,-3.4273,-3.4387,-3.4372,-3.4352,-3.4308,-3.4401,-3.4443,-3.446,-3.4243,-3.4242,-3.4241,-3.424,0,0,-3.3707,-3.3795,-3.3815,-3.3852,-3.3921,-3.3978,-3.4057,-3.4131,-3.4171,-3.4227,-3.4294,-3.4393,-3.4375,-3.4417,-3.4426,-3.448,-3.4579,-3.4453,-3.4455,-3.4476,-3.4709,-3.4725,-3.4744,-3.4574,-3.4577,-3.458,-3.4705,0,-3.3822,-3.3963,-3.398,-3.4105,-3.4173,-3.4169,-3.4238,-3.4288,-3.4314,-3.4376,-3.4404,-3.4475,-3.4445,-3.4471,-3.4524,-3.4556,-3.4626,-3.4547,-3.4637,-3.464,-3.4624,-3.4766,-3.4783,-3.4898,-3.4721,-3.4724,-3.4726,0,-3.3975,-3.4037,-3.4168,-3.423,-3.4259,-3.4321,-3.4391,-3.445,-3.4507,-3.4522,-3.457,-3.4573,-3.4656,-3.4608,-3.4723,-3.4669,-3.4707,-3.4728,-3.4733,-3.4743,-3.4689,-3.4781,-3.4935,-3.4953,-3.4751,-3.4749,-3.4748,0,-3.4057,-3.4172,-3.4267,-3.4298,-3.4371,-3.4415,-3.4447,-3.4501,-3.4545,-3.4607,-3.4635,-3.4705,-3.4744,-3.4798,-3.482,-3.4783,-3.4934,-3.4888,-3.495,-3.4949,-3.4982,-3.498,-3.5146,-3.5005,-3.5005,-3.5004,-3.5004,0,-3.4185,-3.4266,-3.4305,-3.4363,-3.4454,-3.4473,-3.4563,-3.4594,-3.4642,-3.4707,-3.4707,-3.4767,-3.4793,-3.4857,-3.4875,-3.4968,-3.4985,-3.5,-3.5004,-3.5001,-3.4999,-3.5027,-3.502,-3.5009,-3.5008,-3.5007,-3.5006,0,-3.4291,-3.4321,-3.4423,-3.4485,-3.4502,-3.4567,-3.462,-3.4676,-3.4702,-3.4784,-3.4804,-3.4844,-3.4921,-3.4948,-3.5041,-3.5053,-3.5161,-3.5158,-3.5142,-3.5143,-3.5204,-3.5199,-3.5395,-3.5422,-3.5262,-3.5263,-3.5264,0,-3.4371,-3.4434,-3.4502,-3.4546,-3.458,-3.465,-3.4695,-3.4717,-3.4764,-3.4835,-3.4884,-3.496,-3.5022,-3.5144,-3.5182,-3.5253,-3.5252,-3.5316,-3.5263,-3.5258,-3.5255,-3.5251,-3.5258,-3.5326,-3.5328,-3.5329,-3.533,0,-3.451,-3.4522,-3.4587,-3.4658,-3.4713,-3.4769,-3.4824,-3.486,-3.489,-3.4943,-3.5022,-3.507,-3.5166,-3.5242,-3.5315,-3.5349,-3.5346,-3.5347,-3.5365,-3.5363,-3.5352,-3.536,-3.517,-3.5342,-3.5341,-3.534,-3.5339,-3.5339,-3.4607,-3.4663,-3.472,-3.4794,-3.4838,-3.489,-3.4947,-3.498,-3.5046,-3.5126,-3.5134,-3.5219,-3.5277,-3.5375,-3.5412,-3.5479,-3.5462,-3.5488,-3.5495,-3.5501,-3.5507,-3.534,-3.5492,-3.5492,-3.5492,-3.5492,-3.5491,0,-3.4747,-3.4784,-3.4851,-3.4929,-3.4987,-3.4979,-3.504,-3.5089,-3.5164,-3.5218,-3.5279,-3.5371,-3.5445,-3.5489,-3.5564,-3.5609,-3.5609,-3.5628,-3.5625,-3.5634,-3.5517,-3.5494,-3.5627,-3.5627,-3.5626,-3.5626,-3.5626,-3.5626,-3.4827,-3.4922,-3.4941,-3.5058,-3.5095,-3.5178,-3.5214,-3.5262,-3.5306,-3.5408,-3.547,-3.5498,-3.5549,-3.5627,-3.5695,-3.5706,-3.5735,-3.5755,-3.5765,-3.5655,-3.5641,-3.5628,-3.5607,-3.5761,-3.5761,-3.5876,-3.5877,-3.5878]}]]